Weather History for KMSS - January, 2013

Change the Weather History Date:

Wednesday, January 2, 2013

  Actual Average Record
Temperature  
Mean Temperature 0 °F 16 °F  
Max Temperature 17 °F 25 °F 52 °F (2011)
Min Temperature -18 °F 7 °F -30 °F (1968)
Degree Days  
Heating Degree Days 65 49  
Month to date heating degree days 117 98  
Since 1 July heating degree days 2903 3197  
Cooling Degree Days 0 0  
Month to date cooling degree days 0  
Year to date cooling degree days 0  
Moisture  
Dew Point -2 °F    
Average Humidity 69    
Maximum Humidity 87    
Minimum Humidity 51    
Precipitation  
Precipitation T in 0.08 in 0.41 in (1987)
Month to date precipitation T 0.15  
Year to date precipitation T 0.15  
Sea Level Pressure  
Sea Level Pressure 30.10 in    
Wind  
Wind Speed 7 mph (West)    
Max Wind Speed 17 mph    
Max Gust Speed 23 mph    
Visibility 8 miles    
Events Snow    
T = Trace of Precipitation, MM = Missing Value Source: NWS Daily Summary

Daily Weather History Graph

Daily Weather History Graph

Search for Another Location

Airport or City:

Trip Planner

Search our weather history database for the weather conditions in past years. The results will help you decide how hot, cold, wet, or windy it might be!

Date:

Astronomy

Jan. 02, 2013 Rise Set
Actual Time 7:37 AM EST 4:29 PM EST
Civil Twilight 7:03 AM EST 5:03 PM EST
Nautical Twilight 6:26 AM EST 5:40 PM EST
Astronomical Twilight 5:51 AM EST 6:16 PM EST
Moon 10:15 PM EST (1/2) 10:03 AM EST (1/2)
Length of Visible Light 9h 59m
Length of Day
8h 52m
Waning Gibbous, 75% of the Moon is Illuminated
Jan 2
Waning Gibbous
Jan 4
Last Quarter
Jan 11
New
Jan 18
First Quarter
Jan 26
Full

Hourly Weather History & Observations

Time (EST) Temp. Windchill Dew Point Humidity Pressure Visibility Wind Dir Wind Speed Gust Speed Precip Events Conditions
12:53 AM 8.1 °F -3.2 °F 3.9 °F 83% 29.98 in 4.0 mi SSW 6.9 mph - 0.00 in Snow Light Snow
1:19 AM 8.6 °F -2.6 °F 5.0 °F 85% 29.94 in 3.0 mi SW 6.9 mph - 0.00 in Snow Light Snow
1:29 AM 10.4 °F 0.8 °F 5.0 °F 79% 29.94 in 5.0 mi SSW 5.8 mph - 0.00 in Snow Light Snow
1:53 AM 10.0 °F 0.4 °F 5.0 °F 80% 29.96 in 10.0 mi SSW 5.8 mph - 0.00 in   Overcast
2:53 AM 12.0 °F 1.5 °F 6.1 °F 77% 29.94 in 6.0 mi SSW 6.9 mph - 0.00 in Snow Light Snow
3:53 AM 12.9 °F 0.7 °F 7.0 °F 77% 29.91 in 5.0 mi SW 9.2 mph - 0.00 in Snow Light Snow
4:36 AM 12.2 °F -0.2 °F 8.6 °F 85% 29.88 in 2.5 mi SW 9.2 mph - 0.00 in Snow Light Snow
4:53 AM 14.0 °F 2.9 °F 8.1 °F 77% 29.91 in 2.5 mi SW 8.1 mph - 0.00 in Snow Light Snow
5:04 AM 14.0 °F 2.0 °F 8.6 °F 79% 29.88 in 3.0 mi WSW 9.2 mph - 0.00 in Snow Light Snow
5:14 AM 14.0 °F 3.9 °F 8.6 °F 79% 29.88 in 4.0 mi WSW 6.9 mph - 0.00 in Snow Light Snow
5:53 AM 15.1 °F 7.7 °F 10.0 °F 80% 29.92 in 10.0 mi WSW 4.6 mph - 0.00 in   Overcast
6:53 AM 15.8 °F 3.4 °F 10.4 °F 79% 29.93 in 5.0 mi NW 10.4 mph - N/A Snow Light Snow
7:53 AM 12.9 °F -1.6 °F 7.0 °F 77% 30.00 in 10.0 mi NW 12.7 mph 19.6 mph 0.00 in   Mostly Cloudy
8:53 AM 10.0 °F -1.9 °F 5.0 °F 80% 30.06 in 7.0 mi NW 8.1 mph - N/A   Overcast
9:53 AM 10.0 °F -2.9 °F 3.9 °F 76% 30.11 in 10.0 mi NW 9.2 mph - N/A   Overcast
10:53 AM 8.1 °F -9.6 °F -2.0 °F 64% 30.14 in 10.0 mi NNW 16.1 mph - 0.00 in   Clear
11:53 AM 6.1 °F -7.8 °F -7.1 °F 55% 30.15 in 10.0 mi NW 9.2 mph - N/A   Clear
12:53 PM 5.0 °F -10.8 °F -9.0 °F 52% 30.16 in 10.0 mi NNW 11.5 mph 20.7 mph N/A   Clear
1:53 PM 3.9 °F -10.4 °F -9.9 °F 53% 30.19 in 10.0 mi NW 9.2 mph - N/A   Clear
2:53 PM 3.0 °F -11.5 °F -11.0 °F 52% 30.22 in 10.0 mi WNW 9.2 mph - N/A   Scattered Clouds
3:53 PM 1.9 °F -11.8 °F -11.0 °F 55% 30.26 in 10.0 mi NW 8.1 mph - N/A   Clear
4:53 PM -0.0 °F -11.6 °F -11.9 °F 57% 30.28 in 10.0 mi NW 5.8 mph - N/A   Clear
5:53 PM -0.0 °F -9.9 °F -11.0 °F 60% 30.31 in 10.0 mi WNW 4.6 mph - N/A   Clear
6:53 PM -0.0 °F -9.9 °F -11.0 °F 60% 30.31 in 10.0 mi NNW 4.6 mph - N/A   Clear
7:53 PM -7.1 °F -15.9 °F -15.0 °F 68% 30.31 in 10.0 mi NW 3.5 mph - N/A   Clear
8:53 PM -11.9 °F - -17.0 °F 78% 30.32 in 10.0 mi Calm Calm - N/A   Clear
9:53 PM -13.0 °F - -17.0 °F 82% 30.33 in 10.0 mi Calm Calm - N/A   Clear
10:53 PM -17.0 °F -27.2 °F -20.0 °F 86% 30.35 in 10.0 mi SSW 3.5 mph - N/A   Clear
11:53 PM -17.0 °F - -20.9 °F 82% 30.34 in 10.0 mi Calm Calm - N/A   Clear